Location: Goathead Hill Observatory
(46.4083°N, 105.8406°W)
Time: 08:48:14
(UTC-06:00)

ISS - Visible Passes

Search period start: 20 July 2018 00:00
Search period end: 30 July 2018 00:00
Orbit: 402 x 408 km, 51.6° (Epoch: 20 July)

Date Brightness Start Highest point End Pass type
(mag) Time Alt. Az. Time Alt. Az. Time Alt. Az.
20 Jul -2.3 00:22:09 10° W 00:25:16 38° NNW 00:28:23 10° ENE visible
20 Jul -2.0 01:59:13 10° WNW 02:02:15 33° N 02:05:18 10° ENE visible
20 Jul -3.9 03:35:43 10° WNW 03:39:02 88° NNE 03:42:20 10° ESE visible
20 Jul -3.3 21:53:35 10° SSW 21:56:37 36° SE 21:59:39 10° ENE visible
20 Jul -2.9 23:29:51 10° W 23:33:03 49° NNW 23:36:16 10° ENE visible
21 Jul -1.9 01:07:00 10° WNW 01:10:00 31° N 01:13:00 10° ENE visible
21 Jul -3.3 02:43:38 10° WNW 02:46:54 59° NNE 02:50:09 10° ESE visible
21 Jul -2.9 04:20:23 10° W 04:23:14 27° SW 04:26:04 10° SSE visible
21 Jul -3.6 22:37:37 10° WSW 22:40:53 70° NNW 22:44:10 10° ENE visible
22 Jul -1.9 00:14:43 10° WNW 00:17:43 32° N 00:20:44 10° ENE visible
22 Jul -2.6 01:51:32 10° WNW 01:54:42 43° NNE 01:57:52 10° E visible
22 Jul -3.6 03:28:03 10° WNW 03:31:14 46° SW 03:34:23 10° SE visible
22 Jul -3.9 21:45:29 10° SW 21:48:45 75° SSE 21:52:02 10° ENE visible
22 Jul -2.2 23:22:23 10° W 23:25:27 35° N 23:28:31 10° ENE visible
23 Jul -2.2 00:59:23 10° WNW 01:02:27 35° N 01:03:26 28° NE visible
23 Jul -1.0 02:35:52 10° WNW 02:35:59 11° WNW 02:35:59 11° WNW visible
23 Jul -2.6 22:30:02 10° W 22:33:11 44° NNW 22:36:22 10° ENE visible
24 Jul -2.0 00:07:09 10° WNW 00:10:09 31° N 00:12:06 17° ENE visible
24 Jul -1.5 01:43:43 10° WNW 01:44:41 18° WNW 01:44:41 18° WNW visible
24 Jul -3.2 21:37:43 10° WSW 21:40:58 61° NNW 21:44:13 10° ENE visible
24 Jul -1.9 23:14:51 10° WNW 23:17:50 31° N 23:20:50 10° ENE visible
25 Jul -2.2 00:51:35 10° WNW 00:53:48 34° NNW 00:53:48 34° NNW visible
25 Jul -2.1 22:22:29 10° WNW 22:25:31 34° N 22:28:34 10° ENE visible
25 Jul -2.4 23:59:25 10° WNW 00:02:31 37° NNE 00:03:04 34° NE visible
26 Jul -2.4 21:30:06 10° W 21:33:13 40° NNW 21:36:21 10° ENE visible
26 Jul -2.1 23:07:11 10° WNW 23:10:12 32° N 23:12:23 16° ENE visible
27 Jul -1.6 00:43:42 10° WNW 00:45:01 22° WNW 00:45:01 22° WNW visible
27 Jul -2.0 22:14:52 10° WNW 22:17:51 31° N 22:20:50 10° ENE visible
27 Jul -3.0 23:51:31 10° WNW 23:54:23 50° N 23:54:23 50° N visible
28 Jul -2.1 21:22:29 10° WNW 21:25:29 32° N 21:28:30 10° ENE visible
28 Jul -2.6 22:59:20 10° WNW 23:02:27 40° NNE 23:03:48 26° ENE visible
29 Jul -1.1 00:35:49 10° WNW 00:36:25 14° WNW 00:36:25 14° WNW visible
29 Jul -2.3 22:07:05 10° WNW 22:10:07 34° N 22:13:09 10° ENE visible
29 Jul -2.7 23:43:34 10° WNW 23:45:51 42° WNW 23:45:51 42° WNW visible
